FENGYUN 1C DEB, 30938

Orbit data source: Space-Track

FENGYUN 1C DEB, 30938 is space debris in SSO originally from a launch on Mon, 10 May 1999 UTC launched from the Taiyaun Space Center, China (TSC). Fengyun 1C debris stems from the Chinese weather satellite Fengyun-1C, which was intentionally destroyed by a Chinese anti-satellite missile in 2007. This event dramatically increased the amount of space debris, with thousands of trackable fragments posing hazards to satellites and human spaceflight. The Fengyun 1C debris cloud has become a focal point in discussions about space sustainability and the need for international regulations to prevent the creation of new debris.

Loading next visibility...
Identifier
30938, 1999-025BAC
Orbit
SSO
Country
Flag of CNCN / PRC
Related business
Manufacturer
Unknown
Mission
Spacecraft
Bus & Motor
Unknown
Mass
Unknown
Launch date (UTC)
1999-05-10 (27 years ago)
Launch vehicle
Unknown
Launch site
Taiyaun Space Center, China (TSC)
Object type
Payload
Rocket body
Debris
Shape & HBR
Unknown shape, 0.1 m
Radar Cross Section
Small (<0.1 m²)

Expand to show TLE details & history
Last TLE update: 10 hours ago

TLE from 10 hours ago
0 FENGYUN 1C DEB
1 30938U 99025BAC 26122.98608822  .00000528  00000-0  26571-3 0  9993
2 30938  98.5842 137.3270 0044729 294.7892  94.7521 14.20046149991245
Epoch: 2026-05-02T23:39Z
TLE epoch observation values (Epoch: 2026-05-02T23:39:58.022Z)
Latitude
29.73173°
Longitude
-83.48046°
Altitude
831.72 km
Speed
7.438 km/s
True Right ascension
08h 49m 37s
True Declination
29° 35' 07"
Sunlit
Object was in daylight at epoch
Visualization orbit readout
Latitude
Unknown
Longitude
Unknown
Altitude
Unknown
Speed
Unknown
Apparent Right ascension
Unknown
Apparent Declination
Unknown
Sunlit
N/A
Visualization observer readout
Local Sidereal Time
17:12:10
Azimuth
Unknown
Elevation
Unknown
Doppler factor
Unknown
Orbital elements
Apogee altitude
854.556 km
Perigee altitude
790.142 km
Semi-major axis
7,200.486 km
Eccentricity
0.00447
Inclination
98.5842°
RAAN
137.327°
Arg. of periapsis
294.7892°
True anomaly
95.26265°
Mean anomaly
94.7521°
Eccentric anomaly
95.0074°
Mean motion
3.55222 °/min
Orbital period
101.34 mins
BSTAR
0.00026571
Loading maneuver chart data...
Computing Atmospheric mass density...

Documentation

Showing up to 5 results
|